User: anonymous   Login
Location: Fours
(44.3167°N, 6.7000°E)
Time: 08:15:43
(UTC+00:00)
Language:

ISS - Orbit

View from above orbital plane
View from above orbital plane
View from above satellite
View from above satellite

Ground track
Ground track

The orbit data is extracted from the following two-line orbital elements,

1 25544U 98067A   21296.16607639  .00004743  00000-0  94926-4 0  9990
2 25544  51.6432  69.9148 0004112 134.2458 211.7840 15.48775716308426
Epoch (UTC): 23 October 2021 03:59:09
Eccentricity: 0.0004112
inclination: 51.6432°
perigee height: 417 km
apogee height: 423 km
right ascension of ascending node: 69.9148°
argument of perigee: 134.2458°
revolutions per day: 15.48775716
mean anomaly at epoch: 211.7840°
orbit number at epoch: 30842

The dashed part of the orbit path shows where the satellite is in the earth's shadow,  

DLR